Previsão horária em Bolshie Kibya-Kozi

Hoje, 2 Março, Terça-feira

Tempo Temperatura Precipitação Vento Pressão Humidade
00:00 -18°C° 0 mm 6 m/s 749 mmHg 95%
01:00 -17°C° 0.1 mm 6 m/s 748 mmHg 95%
02:00 -17°C° 0.1 mm 7 m/s 747 mmHg 94%
03:00 -17°C° 0.1 mm 7 m/s 745 mmHg 94%
04:00 -15°C° 0.4 mm 7 m/s 744 mmHg 94%
05:00 -14°C° 0.4 mm 7 m/s 743 mmHg 94%
06:00 -13°C° 0.4 mm 7 m/s 742 mmHg 94%
07:00 -11°C° 0.4 mm 7 m/s 741 mmHg 94%
08:00 -10°C° 0.4 mm 8 m/s 740 mmHg 95%
09:00 -7°C° 0.4 mm 8 m/s 740 mmHg 95%
10:00 -6°C° 0.7 mm 7 m/s 739 mmHg 96%
11:00 -4°C° 0.7 mm 7 m/s 738 mmHg 97%
12:00 -3°C° 0.7 mm 7 m/s 738 mmHg 99%
13:00 -3°C° 0.4 mm 6 m/s 737 mmHg 98%
14:00 -3°C° 0.4 mm 6 m/s 737 mmHg 98%
15:00 -3°C° 0.4 mm 6 m/s 737 mmHg 98%
16:00 -3°C° 0.2 mm 6 m/s 737 mmHg 96%
17:00 -2°C° 0.2 mm 5 m/s 737 mmHg 95%
18:00 -4°C° 0.2 mm 5 m/s 736 mmHg 94%
19:00 -5°C° 0 mm 5 m/s 737 mmHg 94%
20:00 -6°C° 0 mm 5 m/s 737 mmHg 95%
21:00 -7°C° 0 mm 4 m/s 738 mmHg 95%
22:00 -6°C° 0.1 mm 5 m/s 738 mmHg 95%
23:00 -6°C° 0.1 mm 5 m/s 738 mmHg 95%

Amanhã, 3 Março, Quarta-feira

Tempo Temperatura Precipitação Vento Pressão Humidade
00:00 -6°C° 0.1 mm 5 m/s 738 mmHg 95%
01:00 -6°C° 0.1 mm 5 m/s 738 mmHg 95%
02:00 -7°C° 0.1 mm 5 m/s 738 mmHg 95%
03:00 -7°C° 0.1 mm 5 m/s 739 mmHg 95%
04:00 -8°C° 0.1 mm 4 m/s 739 mmHg 95%
05:00 -8°C° 0.1 mm 4 m/s 739 mmHg 95%
06:00 -8°C° 0.1 mm 3 m/s 739 mmHg 96%
07:00 -8°C° 0.1 mm 3 m/s 739 mmHg 96%
08:00 -7°C° 0.1 mm 3 m/s 739 mmHg 95%
09:00 -8°C° 0.1 mm 4 m/s 739 mmHg 95%
10:00 -7°C° 0.1 mm 4 m/s 739 mmHg 93%
11:00 -7°C° 0.1 mm 4 m/s 739 mmHg 92%
12:00 -7°C° 0.1 mm 5 m/s 740 mmHg 90%
13:00 -7°C° 0.1 mm 5 m/s 740 mmHg 91%
14:00 -7°C° 0.1 mm 5 m/s 740 mmHg 91%
15:00 -7°C° 0.1 mm 5 m/s 740 mmHg 92%
16:00 -8°C° 0.1 mm 5 m/s 741 mmHg 91%
17:00 -9°C° 0.1 mm 6 m/s 741 mmHg 90%
18:00 -10°C° 0.1 mm 6 m/s 741 mmHg 89%
19:00 -11°C° 0 mm 5 m/s 742 mmHg 90%
20:00 -12°C° 0 mm 5 m/s 742 mmHg 91%
21:00 -12°C° 0 mm 4 m/s 743 mmHg 93%
22:00 -14°C° 0 mm 4 m/s 743 mmHg 94%
23:00 -14°C° 0 mm 4 m/s 743 mmHg 94%

Depois de amanhã, 4 Março, Quinta-feira

Tempo Temperatura Precipitação Vento Pressão Humidade
00:00 -13°C° 0 mm 3 m/s 743 mmHg 95%
01:00 -14°C° 0 mm 3 m/s 743 mmHg 96%
02:00 -15°C° 0 mm 4 m/s 743 mmHg 96%
03:00 -16°C° 0 mm 4 m/s 743 mmHg 97%
04:00 -16°C° 0 mm 4 m/s 743 mmHg 96%
05:00 -15°C° 0 mm 4 m/s 743 mmHg 96%
06:00 -15°C° 0 mm 4 m/s 742 mmHg 95%
07:00 -14°C° 0 mm 4 m/s 742 mmHg 95%
08:00 -12°C° 0 mm 4 m/s 742 mmHg 95%
09:00 -10°C° 0 mm 4 m/s 742 mmHg 96%
10:00 -10°C° 0 mm 5 m/s 741 mmHg 94%
11:00 -9°C° 0 mm 6 m/s 741 mmHg 93%
12:00 -8°C° 0 mm 6 m/s 740 mmHg 91%
13:00 -7°C° 0.2 mm 7 m/s 739 mmHg 92%
14:00 -7°C° 0.2 mm 8 m/s 739 mmHg 94%
15:00 -7°C° 0.2 mm 8 m/s 738 mmHg 95%
16:00 -6°C° 0.6 mm 9 m/s 737 mmHg 95%
17:00 -6°C° 0.6 mm 9 m/s 736 mmHg 95%
18:00 -5°C° 0.6 mm 9 m/s 735 mmHg 95%
19:00 -5°C° 0.5 mm 9 m/s 735 mmHg 95%
20:00 -4°C° 0.5 mm 10 m/s 735 mmHg 95%
21:00 -4°C° 0.5 mm 10 m/s 734 mmHg 95%
22:00 -4°C° 0.4 mm 10 m/s 734 mmHg 95%
23:00 -4°C° 0.4 mm 10 m/s 734 mmHg 95%

5 Março, Sexta-feira

Tempo Temperatura Precipitação Vento Pressão Humidade
00:00 -4°C° 0.4 mm 9 m/s 733 mmHg 95%
01:00 -5°C° 0.3 mm 9 m/s 734 mmHg 89%
02:00 -6°C° 0.3 mm 8 m/s 734 mmHg 84%
03:00 -7°C° 0.3 mm 8 m/s 735 mmHg 78%
04:00 -8°C° 0 mm 8 m/s 736 mmHg 82%
05:00 -11°C° 0 mm 7 m/s 737 mmHg 85%
06:00 -13°C° 0 mm 7 m/s 738 mmHg 88%
07:00 -13°C° 0 mm 7 m/s 738 mmHg 89%
08:00 -14°C° 0 mm 7 m/s 739 mmHg 89%
09:00 -14°C° 0 mm 7 m/s 740 mmHg 89%
10:00 -14°C° 0 mm 6 m/s 741 mmHg 89%
11:00 -12°C° 0 mm 6 m/s 742 mmHg 89%
12:00 -12°C° 0 mm 6 m/s 743 mmHg 88%
13:00 -12°C° 0 mm 5 m/s 744 mmHg 88%
14:00 -11°C° 0 mm 5 m/s 744 mmHg 88%
15:00 -11°C° 0 mm 5 m/s 745 mmHg 88%
16:00 -11°C° 0 mm 4 m/s 745 mmHg 90%
17:00 -12°C° 0 mm 4 m/s 746 mmHg 91%
18:00 -13°C° 0 mm 3 m/s 746 mmHg 92%
19:00 -14°C° 0 mm 3 m/s 747 mmHg 93%
20:00 -15°C° 0 mm 3 m/s 748 mmHg 94%
21:00 -17°C° 0 mm 3 m/s 748 mmHg 94%
22:00 -16°C° 0 mm 2 m/s 749 mmHg 95%
23:00 -17°C° 0 mm 2 m/s 749 mmHg 95%

6 Março, Sábado

Tempo Temperatura Precipitação Vento Pressão Humidade
00:00 -18°C° 0 mm 2 m/s 749 mmHg 96%
01:00 -16°C° 0 mm 1 m/s 749 mmHg 97%
02:00 -16°C° 0 mm 1 m/s 750 mmHg 97%
03:00 -16°C° 0 mm 0 m/s 750 mmHg 98%
04:00 -16°C° 0 mm 1 m/s 750 mmHg 97%
05:00 -15°C° 0 mm 1 m/s 749 mmHg 96%
06:00 -17°C° 0 mm 2 m/s 749 mmHg 95%
07:00 -16°C° 0 mm 2 m/s 749 mmHg 94%
08:00 -15°C° 0 mm 2 m/s 749 mmHg 93%
09:00 -14°C° 0 mm 2 m/s 748 mmHg 92%
10:00 -14°C° 0 mm 3 m/s 748 mmHg 91%
11:00 -13°C° 0 mm 3 m/s 747 mmHg 90%
12:00 -12°C° 0 mm 3 m/s 746 mmHg 90%
13:00 -12°C° 0.2 mm 3 m/s 745 mmHg 91%
14:00 -12°C° 0.2 mm 4 m/s 745 mmHg 92%
15:00 -12°C° 0.2 mm 4 m/s 744 mmHg 93%
16:00 -12°C° 0.3 mm 4 m/s 744 mmHg 94%
17:00 -12°C° 0.3 mm 4 m/s 744 mmHg 94%
18:00 -12°C° 0.3 mm 4 m/s 743 mmHg 94%
19:00 -12°C° 0.1 mm 4 m/s 744 mmHg 94%
20:00 -13°C° 0.1 mm 3 m/s 744 mmHg 94%
21:00 -14°C° 0.1 mm 3 m/s 744 mmHg 94%
22:00 -15°C° 0 mm 3 m/s 745 mmHg 93%
23:00 -16°C° 0 mm 3 m/s 745 mmHg 93%

7 Março, Domingo

Tempo Temperatura Precipitação Vento Pressão Humidade
00:00 -18°C° 0 mm 3 m/s 745 mmHg 93%
01:00 -17°C° 0 mm 3 m/s 745 mmHg 94%
02:00 -17°C° 0 mm 3 m/s 746 mmHg 95%
03:00 -17°C° 0 mm 3 m/s 746 mmHg 96%
04:00 -17°C° 0 mm 3 m/s 746 mmHg 96%
05:00 -17°C° 0 mm 3 m/s 747 mmHg 96%
06:00 -18°C° 0 mm 3 m/s 747 mmHg 95%
07:00 -18°C° 0 mm 3 m/s 747 mmHg 95%
08:00 -19°C° 0 mm 3 m/s 748 mmHg 94%
09:00 -21°C° 0 mm 3 m/s 748 mmHg 93%
10:00 -19°C° 0 mm 3 m/s 748 mmHg 93%
11:00 -18°C° 0 mm 3 m/s 748 mmHg 93%
12:00 -17°C° 0 mm 3 m/s 748 mmHg 93%
13:00 -18°C° 0 mm 4 m/s 748 mmHg 93%
14:00 -17°C° 0 mm 4 m/s 747 mmHg 93%
15:00 -17°C° 0 mm 4 m/s 747 mmHg 93%
16:00 -18°C° 0 mm 5 m/s 747 mmHg 93%
17:00 -19°C° 0 mm 5 m/s 746 mmHg 94%
18:00 -20°C° 0 mm 5 m/s 746 mmHg 95%
19:00 -21°C° 0 mm 6 m/s 745 mmHg 93%
20:00 -20°C° 0 mm 7 m/s 745 mmHg 91%
21:00 -20°C° 0 mm 7 m/s 744 mmHg 89%
22:00 -19°C° 0.1 mm 8 m/s 743 mmHg 90%
23:00 -20°C° 0.1 mm 9 m/s 742 mmHg 91%
Mostrar mais